Regional Weather Roundup
Issued by NWS

Home | Current Version | Previous Version | Text Only | Print | Product List | Glossary Off
Versions: 1 2 3 4 5 6 7 8 9 10 11 12 13 14 15 16 17 18 19 20 21 22 23 24 25 26 27 28 29 30 31 32 33 34 35 36 37 38 39 40 41 42 43 44 45 46 47 48 49 50

000
ASUS43 KDTX 012310
RWRMI
MICHIGAN HOURLY REGIONAL WEATHER ROUNDUP
NATIONAL WEATHER SERVICE DETROIT/PONTIAC MI
700 PM EDT WED OCT 01 2014

NOTE: "FAIR" INDICATES FEW OR NO CLOUDS BELOW 12,000 FEET WITH NO
SIGNIFICANT WEATHER AND/OR OBSTRUCTION TO VISIBILITY.

MIZ047>049-052>055-059>063-066>070-074>076-081>083-020000-
SOUTHEAST LOWER MICHIGAN

CITY           SKY/WX    TMP DP  RH WIND       PRES   REMARKS
ADRIAN         CLEAR     64  50  60 SE3       30.01S
ALMA           CLEAR     61  52  73 SE3       29.99F
ANN ARBOR      CLEAR     64  50  60 SE5       30.01R
BAD AXE        PTCLDY    60  58  94 CALM      30.04R FOG
CARO           MOCLDY    64  57  76 CALM      30.02R
DETROIT CITY   PTCLDY    64  57  78 CALM      30.02
DETROIT        PTCLDY    64  53  67 SE5       30.02S
FLINT          PTCLDY    62  53  72 S7        30.01S
GROSSE ILE     CLEAR     64  55  72 CALM      30.01S
HILLSDALE      CLEAR     62  48  60 CALM      30.01S
HOWELL         CLEAR     62  51  67 SE6       30.01R

CITY           SKY/WX    TMP DP  RH WIND       PRES   REMARKS
JACKSON        CLEAR     61  49  64 S5        30.01R
LAMBERTVILLE   CLEAR     63  54  72 CALM      30.02R
LANSING        CLEAR     62  49  62 S7        30.00S
LAPEER         FAIR      63  56  78 SE3       30.03R
MASON          CLEAR     62  50  65 SE3       30.00S
MONROE         CLEAR     63  54  72 CALM      30.00S
MT. CLEMENS    PTCLDY    63  58  82 S5        30.01R
PONTIAC        PTCLDY    63  52  67 SE5       30.01S
PORT HOPE        N/A     60  56  86 SE5       30.02S
PORT HURON     MOCLDY    61  59  94 CALM      30.03R FOG
TRI CITIES     PTCLDY    64  53  67 S5        30.01S
TROY           PTCLDY    67  55  64 E3        30.04R
SAGINAW HB     CLEAR     64  54  68 CALM      30.01R
$$
MIZ043>046-050>051-056>058-064>065-071>073-077>080-020000-
SOUTHWEST LOWER MICHIGAN

CITY           SKY/WX    TMP DP  RH WIND       PRES   REMARKS
BATTLE CREEK   CLEAR     64  49  57 SE5       29.99F
BENTON HARBOR  PTCLDY    64  52  64 E8        29.94S
BIG RAPIDS     PTCLDY    57  53  87 E7        29.98F
COLDWATER      CLEAR     63  50  61 SE5       29.99S
FREMONT        FAIR      59  49  70 SE6       29.97S
HOLLAND        CLEAR     62  52  69 SE6       29.97S
GRAND RAPIDS   PTCLDY    61  52  72 SE5       29.98S
IONIA          FAIR      62  51  66 SE7       29.97F
KALAMAZOO      CLEAR     64  49  57 SE5       29.99S
LUDINGTON      CLEAR     59  52  76 SW5       29.97R
MARSHALL       CLEAR     62  49  61 SE6       29.98F
MOUNT PLEASANT CLEAR     61  50  66 SE3       29.99F
MUSKEGON       MOCLDY    61  50  67 E8        29.96S
SOUTH HAVEN    CLEAR     64  53  68 E6        29.95S
$$
MIZ016>042-020000-
NORTHERN LOWER MICHIGAN

CITY           SKY/WX    TMP DP  RH WIND       PRES   REMARKS
ALPENA         CLOUDY    58  57  97 SE10      30.03S FOG
BEAVER ISLAND  PTCLDY    60  56  85 E5        29.96F
BELLAIRE       PTCLDY    63  53  69 SE6       29.97R
CADILLAC       CLEAR     57  51  79 S7        29.98R
CHARLEVOIX     PTCLDY    63  54  73 SE3       29.99S
FRANKFORT      MOCLDY    57  51  79 CALM      29.96R
GAYLORD        PTCLDY    59  53  80 SE8       29.99S
GRAYLING       PTCLDY    60  53  75 S8        30.00R
HARBOR SPRINGS PTCLDY    61  55  81 E3        29.98S
HOUGHTON LAKE  PTCLDY    59  51  75 SE7       30.00S
OSCODA         MOCLDY    59  58  96 SE5       30.02S FOG
PELLSTON       CLEAR     58  56  93 E6        29.98F
TRAVERSE CITY  PTCLDY    64  51  62 VRB5      29.95S
$$
MIZ007>008-015-020000-
EASTERN UPPER MICHIGAN

CITY           SKY/WX    TMP DP  RH WIND       PRES   REMARKS
MACKINAC ISLAN CLOUDY    56  56 100 E8        29.99F FOG
NEWBERRY       CLOUDY    55  53  92 SE7       29.97F
S. S. MARIE    CLOUDY    55  53  93 SE9G18    30.00F FOG
MUNISING         N/A     57  50  77 S9        29.92S
$$
MIZ004>006-011>014-085-020000-
CENTRAL UPPER MICHIGAN

CITY           SKY/WX    TMP DP  RH WIND       PRES   REMARKS
MANISTIQUE     CLOUDY    55  53  93 SW3       29.95F
SAWYER-GWINN   CLOUDY    55  48  76 S18G26    29.91F
$$
MIZ001>003-009>011-084-020000-
WESTERN UPPER MICHIGAN

CITY           SKY/WX    TMP DP  RH WIND       PRES   REMARKS
IRON MOUNTAIN  CLOUDY    55  49  80 SE12      29.90S
HOUGHTON       LGT RAIN  56  49  77 SE12      29.82F
COPPER HARBOR    N/A     58  49  72 VRB3      29.83F
$$

ABBREVIATIONS USED IN REMARKS
   TC - TEMPERATURE IN CELSIUS
  WCI - WIND CHILL INDEX
   HX - HEAT INDEX
  VSB - VISIBILITY



USA.gov is the U.S. government's official web portal to all federal, state and local government web resources and services.